Lid_Strength_Index
0 0 0 1 1 1 1 1 2 2 2 2 2 3 3 4 5 8 10 8 9 12 12 11 11 12 12 12 14 13 14 12 14 20 20 20 22 17 19 16 15 15 16 17 16 17 21 13 11 12 14 13 13 11
0 0 0 1 1 1 1 1 1 2 2 2 2 2 2 3 4 5 10 9 7 11 11 8 8 8 9 10 10 12 13 13 11 16 17 19 21 18 21 21 12 16 12 15 13 14 11 13 13 15 15 15 14 14
0 0 0 1 1 1 1 1 1 1 1 2 2 3 3 4 4 6 10 11 10 11 11 10 11 8 7 7 7 10 10 10 10 10 15 17 18 14 17 16 16 12 15 12 13 14 16 14 14 17 17 18 16 16
0 0 -0 1 1 1 1 1 1 1 2 2 2 3 3 4 4 6 9 10 10 13 14 12 7 9 6 6 6 7 7 7 6 8 10 14 15 10 14 13 14 19 18 19 16 16 16 15 17 19 19 18 18 17
1 1 1 0 0 0 1 1 2 2 2 2 2 2 3 4 4 6 8 8 9 11 14 12 10 9 9 8 7 6 6 7 8 9 9 10 9 9 11 14 21 23 25 21 17 22 24 22 20 21 20 20 19 18
1 1 1 1 1 1 1 2 2 2 2 2 2 3 3 4 6 8 11 9 7 10 14 15 11 11 10 7 7 7 7 8 8 9 9 13 15 14 12 17 24 24 24 24 26 25 25 24 22 20 22 22 21 19
2 2 2 1 1 1 1 2 3 3 2 3 3 3 4 5 7 10 13 9 6 10 14 15 14 12 11 10 8 8 8 8 8 9 14 17 20 18 21 22 26 26 26 26 25 26 24 24 26 24 24 24 23 20
1 1 2 3 3 2 2 2 3 3 4 4 4 4 4 5 7 12 9 9 9 13 15 17 15 17 13 14 11 9 9 9 12 15 17 20 21 22 24 27 26 27 27 26 27 27 28 26 25 26 25 25 25 24
2 2 2 2 2 3 3 3 3 3 4 5 4 6 9 13 14 14 6 9 13 13 19 19 19 21 14 15 13 11 10 16 16 21 22 21 28 26 29 29 29 29 30 29 29 29 27 29 29 28 28 28 28 27
3 3 3 3 2 3 3 3 3 4 4 5 9 12 14 14 9 9 14 15 18 22 22 23 20 17 13 16 19 16 17 19 22 23 23 28 31 26 26 28 29 29 29 30 32 32 32 32 31 30 30 29 28 27
3 3 3 3 3 3 3 4 4 5 6 14 16 18 14 11 12 18 20 20 24 25 26 26 24 22 15 18 18 13 20 20 24 24 25 33 31 27 27 28 29 29 30 30 30 31 30 30 31 31 30 30 29 29
3 3 3 3 3 3 3 3 5 10 14 14 14 16 18 20 18 19 31 27 27 29 29 28 25 22 22 16 19 19 22 22 24 26 28 33 28 29 30 29 30 30 30 31 30 31 31 30 30 31 31 30 30 29
3 4 4 4 4 4 4 4 5 6 10 14 17 21 20 25 24 29 30 30 31 30 30 30 28 25 23 17 21 24 26 27 26 30 33 32 30 31 32 30 30 30 30 31 31 31 31 30 30 31 31 30 29 29
3 3 4 4 4 5 5 6 7 10 16 22 21 23 26 29 32 36 35 36 31 28 31 27 32 29 29 24 24 25 26 26 33 31 31 35 35 36 32 31 31 31 31 31 31 31 31 31 31 30 31 30 30 30
4 4 4 4 5 5 6 8 10 20 22 26 24 29 29 30 32 34 36 35 30 31 28 30 30 23 29 27 28 27 28 33 32 29 33 35 36 36 35 34 32 31 31 31 31 31 31 31 31 31 30 30 30 30
5 6 7 4 5 6 7 14 19 23 27 27 29 30 34 33 33 35 37 37 32 29 28 29 32 29 31 32 28 33 30 29 29 36 37 36 36 35 35 33 31 31 30 31 31 31 31 31 31 31 30 31 31 31
8 15 6 5 7 9 9 20 21 27 28 29 31 40 36 36 34 35 33 31 26 30 31 29 27 28 30 33 33 36 31 33 37 38 38 36 34 33 32 31 30 30 30 30 30 30 30 30 29 31 32 32 31 31
16 13 6 7 15 15 24 24 25 25 29 33 29 31 36 35 34 34 33 27 28 28 29 29 25 28 28 28 32 32 33 34 32 31 30 30 31 31 31 31 30 29 30 30 30 30 30 30 30 31 31 31 30 31
11 10 8 8 14 22 22 24 25 27 32 36 35 34 35 35 35 34 34 30 27 27 27 25 27 29 28 32 34 36 34 32 30 29 29 31 30 31 32 33 31 31 31 31 30 30 30 30 30 30 31 31 32 31
9 8 8 11 14 21 24 26 27 25 30 30 36 34 36 33 36 41 40 34 30 31 28 30 30 31 30 31 33 31 30 29 31 34 31 30 31 35 34 35 35 35 34 33 33 31 31 31 30 31 32 32 32 32
13 13 12 19 24 26 29 33 29 33 33 31 38 35 32 36 36 36 37 37 32 34 30 35 36 36 38 38 37 37 33 32 33 35 35 34 33 34 38 39 40 41 39 38 37 34 35 36 34 34 36 35 35 35
22 14 22 19 23 27 28 32 30 32 30 34 34 37 36 33 36 37 38 34 34 31 33 33 35 38 39 37 37 39 38 39 41 39 36 38 36 37 38 41 40 40 40 39 40 37 35 35 36 38 39 36 36 36
18 19 24 24 23 26 30 33 31 34 29 30 35 31 33 37 37 35 31 37 34 38 42 42 43 47 42 46 47 45 46 43 40 40 39 39 40 42 40 38 41 40 38 35 38 38 37 35 34 35 37 37 38 35
23 30 31 32 30 31 35 33 35 34 36 35 35 31 32 39 37 33 29 36 34 44 43 42 45 41 42 43 42 39 38 40 43 44 45 44 41 35 38 36 40 37 34 33 37 35 36 36 36 38 38 39 38 36
23 31 32 33 38 33 34 35 35 31 34 42 35 33 35 44 34 34 30 29 37 41 41 49 47 42 35 40 41 41 46 38 37 36 37 36 40 40 37 36 34 33 35 38 37 37 37 39 38 38 36 37 33 32
30 39 34 41 36 31 38 32 37 37 43 37 38 42 46 38 32 29 30 30 33 34 38 35 33 40 40 36 36 37 33 39 40 38 34 36 35 33 35 34 33 28 35 34 36 36 35 35 36 36 34 34 32 32
27 32 43 48 44 43 43 47 48 42 38 33 37 38 37 32 32 27 31 33 31 31 31 29 28 28 28 35 34 36 43 35 33 33 39 38 35 33 31 30 30 29 35 35 36 35 34 33 33 32 32 31 33 33
39 42 31 40 42 49 39 45 41 36 36 43 39 33 32 29 26 27 27 33 37 42 40 40 38 35 35 35 37 37 40 43 41 38 35 32 32 31 32 30 28 24 29 32 32 33 34 33 32 31 31 30 29 30
40 48 43 38 43 42 38 33 34 38 42 40 34 32 31 32 34 37 35 40 47 40 36 35 35 43 41 42 42 41 38 35 32 31 31 28 28 24 29 30 30 31 31 33 28 24 27 28 29 29 29 29 28 26
40 51 40 43 36 32 36 43 42 50 51 49 51 44 40 39 38 42 44 44 38 35 34 34 36 33 30 31 30 33 35 32 27 24 25 24 25 29 33 32 31 30 30 30 28 27 24 24 25 28 29 29 31 32
47 48 41 42 37 40 47 54 55 53 52 53 55 50 43 43 43 41 41 39 38 42 38 35 36 37 32 32 30 29 26 28 29 27 24 22 22 24 24 24 24 24 25 25 26 26 26 28 31 32 33 33 33 33
46 43 38 34 35 47 53 49 48 47 49 50 48 54 48 47 41 33 39 42 41 41 34 32 31 28 29 27 26 24 23 24 26 27 26 25 24 23 22 22 22 23 24 24 25 25 25 26 29 32 32 32 33 33
46 47 47 44 38 37 42 44 41 41 45 45 43 45 46 43 35 31 36 37 35 35 34 32 30 29 27 26 25 24 23 23 22 20 20 21 21 21 21 22 22 22 23 23 24 24 26 28 30 31 32 33 33 33